W5TTY Weather Reports


time (UTC)temp
C
wind
direction
speed
KPH
gust
KPH
rain 1hr
cm
rain 24hr
cm
rain mn
cm
humidity
%
barometer
mb
20260905224329 30 94 8.0 20.9 0.00 0.00 0.00 69 1011.4
20260905223830 30 73 9.7 20.9 0.00 0.00 0.00 69 1011.3
20260905223317 30 79 9.7 19.3 0.00 0.00 0.00 69 1011.3
20260905222846 30 92 9.7 17.7 0.00 0.00 0.00 69 1011.3
20260905222334 31 82 9.7 19.3 0.00 0.00 0.00 69 1011.3
20260905221845 31 32 9.7 19.3 0.00 0.00 0.00 69 1011.3
20260905220837 31 81 4.8 12.9 0.00 0.00 0.00 70 1011.3
20260905220346 31 55 4.8 8.0 0.00 0.00 0.00 70 1011.4
20260905215831 31 311 0.0 0.0 0.00 0.00 0.00 70 1011.2
20260905215317 31 311 0.0 0.0 0.00 0.00 0.00 70 1011.1
20260905214826 32 311 0.0 8.0 0.00 0.00 0.00 70 1011.1
20260905214333 32 311 3.2 14.5 0.00 0.00 0.00 70 1011.0
20260905213818 32 326 4.8 14.5 0.00 0.00 0.00 71 1011.1
20260905213327 32 300 4.8 6.4 0.00 0.00 0.00 71 1011.2
20260905212831 32 253 0.0 4.8 0.00 0.00 0.00 71 1011.2
20260905212317 32 253 1.6 6.4 0.00 0.00 0.00 71 1011.3
20260905211821 32 253 1.6 9.7 0.00 0.00 0.00 71 1011.5
20260905211352 32 270 1.6 9.7 0.00 0.00 0.00 71 1011.5
20260905210819 32 294 1.6 11.3 0.00 0.00 0.00 72 1011.5
20260905210324 32 249 3.2 16.1 0.00 0.00 0.00 72 1011.5
20260905205829 32 234 9.7 20.9 0.00 0.00 0.00 72 1011.5
20260905205328 32 244 6.4 20.9 0.00 0.00 0.00 72 1011.4
20260905204841 32 211 4.8 16.1 0.00 0.00 0.00 72 1011.6
20260905204327 32 255 9.7 19.3 0.00 0.00 0.00 72 1011.6
20260905203832 32 273 8.0 19.3 0.00 0.00 0.00 72 1011.7
20260905203320 32 274 6.4 19.3 0.00 0.00 0.00 73 1011.7
20260905202846 32 229 11.3 19.3 0.00 0.00 0.00 73 1011.8
20260905202356 32 231 8.0 16.1 0.00 0.00 0.00 73 1011.8
20260905201841 32 223 9.7 17.7 0.00 0.00 0.00 73 1011.8
20260905201329 32 205 6.4 17.7 0.00 0.00 0.00 73 1011.8
20260905200827 32 236 9.7 17.7 0.00 0.00 0.00 74 1011.8
20260905200335 32 227 6.4 14.5 0.00 0.00 0.00 74 1011.8
20260905195824 32 312 3.2 8.0 0.00 0.00 0.00 74 1011.9
20260905195326 32 315 3.2 8.0 0.00 0.00 0.00 75 1011.9
20260905194829 32 308 1.6 4.8 0.00 0.00 0.00 75 1011.9
20260905194336 32 308 1.6 4.8 0.00 0.00 0.00 75 1011.9
20260905193846 33 308 3.2 6.4 0.00 0.00 0.00 76 1012.1
20260905193328 33 308 4.8 6.4 0.00 0.00 0.00 76 1012.1
20260905192831 33 71 4.8 12.9 0.00 0.00 0.00 76 1012.1
20260905192403 33 74 6.4 12.9 0.00 0.00 0.00 77 1012.1
20260905191819 33 167 3.2 16.1 0.00 0.00 0.00 78 1012.1
20260905191351 33 180 6.4 16.1 0.00 0.00 0.00 78 1012.2
20260905190831 33 135 4.8 9.7 0.00 0.00 0.00 79 1012.3
20260905190337 32 142 6.4 8.0 0.00 0.00 0.00 79 1012.4
20260905185908 32 120 4.8 9.7 0.00 0.00 0.00 79 1012.5
20260905185345 32 170 3.2 12.9 0.00 0.00 0.00 80 1012.5
20260905184827 32 260 4.8 14.5 0.00 0.00 0.00 80 1012.5
20260905184338 32 200 4.8 14.5 0.00 0.00 0.00 80 1012.6
20260905183844 32 76 8.0 16.1 0.00 0.00 0.00 80 1012.7
20260905183327 32 78 6.4 16.1 0.00 0.00 0.00 80 1012.9
20260905182831 32 76 4.8 11.3 0.00 0.00 0.00 81 1013.0
20260905182332 32 107 3.2 12.9 0.00 0.00 0.00 82 1013.1
20260905181818 31 150 6.4 11.3 0.00 0.00 0.00 82 1013.2
20260905181321 31 174 4.8 8.0 0.00 0.00 0.00 82 1013.4
20260905180851 31 117 4.8 9.7 0.00 0.00 0.00 82 1013.5
20260905180337 31 118 1.6 9.7 0.00 0.00 0.00 83 1013.6
20260905175824 31 119 4.8 9.7 0.00 0.00 0.00 83 1013.7
20260905175327 31 144 3.2 11.3 0.00 0.00 0.00 83 1013.7
20260905174825 31 107 6.4 11.3 0.00 0.00 0.00 83 1013.8
20260905174328 31 199 4.8 11.3 0.00 0.00 0.00 83 1013.9
20260905173836 31 226 3.2 6.4 0.00 0.00 0.00 84 1013.9
20260905173349 31 229 4.8 6.4 0.00 0.00 0.00 84 1014.0
20260905172828 31 156 1.6 8.0 0.00 0.00 0.00 85 1014.0
20260905172328 31 88 4.8 9.7 0.00 0.00 0.00 85 1014.1
20260905171834 31 61 6.4 9.7 0.00 0.00 0.00 85 1014.2
20260905171319 30 74 8.0 11.3 0.00 0.00 0.00 85 1014.3
20260905170825 30 109 4.8 9.7 0.00 0.00 0.00 85 1014.3
20260905170332 30 90 4.8 9.7 0.00 0.00 0.00 85 1014.3
20260905165820 30 224 3.2 4.8 0.00 0.00 0.00 85 1014.4
20260905165325 30 230 0.0 3.2 0.00 0.00 0.00 85 1014.4
20260905164828 30 229 0.0 3.2 0.00 0.00 0.00 86 1014.3
20260905164339 30 229 1.6 4.8 0.00 0.00 0.00 86 1014.4
20260905163823 30 230 0.0 8.0 0.00 0.00 0.00 86 1014.4
20260905163330 30 229 4.8 11.3 0.00 0.00 0.00 86 1014.4
20260905162851 30 181 8.0 11.3 0.00 0.00 0.00 87 1014.3
20260905162404 30 141 4.8 8.0 0.00 0.00 0.00 87 1014.3
20260905161826 30 144 1.6 12.9 0.00 0.00 0.00 87 1014.3
20260905161328 30 134 4.8 12.9 0.00 0.00 0.00 87 1014.2
20260905160831 30 107 3.2 12.9 0.00 0.00 0.00 87 1014.2
20260905160337 30 95 8.0 11.3 0.00 0.00 0.00 87 1014.4
20260905155823 30 245 4.8 11.3 0.00 0.00 0.00 88 1014.5
20260905155354 30 183 3.2 8.0 0.00 0.03 0.00 88 1014.4
20260905154858 30 199 1.6 6.4 0.00 0.03 0.00 88 1014.4
20260905154320 30 221 3.2 16.1 0.00 0.03 0.00 88 1014.4
20260905153851 29 252 8.0 16.1 0.00 0.03 0.00 88 1014.3
20260905153333 29 234 1.6 12.9 0.00 0.03 0.00 88 1014.4
20260905152839 29 230 8.0 12.9 0.00 0.03 0.00 88 1014.4
20260905152323 29 252 4.8 16.1 0.00 0.03 0.00 88 1014.4
20260905151826 29 243 6.4 16.1 0.00 0.03 0.00 88 1014.3
20260905151330 29 193 4.8 11.3 0.00 0.03 0.00 88 1014.3
20260905150835 28 307 4.8 11.3 0.00 0.03 0.00 88 1014.2
20260905150347 28 286 1.6 8.0 0.00 0.03 0.00 88 1014.3
20260905145820 28 259 1.6 4.8 0.00 0.03 0.00 88 1014.4
20260905145331 28 261 1.6 11.3 0.00 0.03 0.00 88 1014.5
20260905144836 28 275 3.2 11.3 0.00 0.03 0.00 88 1014.5
20260905144321 28 276 1.6 6.4 0.00 0.03 0.00 88 1014.5
20260905143847 27 262 1.6 4.8 0.00 0.03 0.00 88 1014.4
20260905143328 27 263 3.2 4.8 0.00 0.03 0.00 87 1014.4
20260905142840 27 263 0.0 4.8 0.00 0.03 0.00 87 1014.5
20260905142341 27 246 0.0 0.0 0.00 0.03 0.00 87 1014.5
20260905141826 27 165 0.0 0.0 0.00 0.03 0.00 87 1014.5
20260905141325 27 141 0.0 0.0 0.00 0.03 0.00 87 1014.4
20260905140827 27 140 0.0 0.0 0.00 0.03 0.00 87 1014.5
20260905140333 26 140 0.0 0.0 0.00 0.03 0.00 87 1014.5
20260905135838 26 140 0.0 0.0 0.00 0.03 0.00 87 1014.5
20260905135319 26 150 0.0 0.0 0.00 0.03 0.00 87 1014.4
20260905134820 26 173 0.0 0.0 0.00 0.03 0.00 87 1014.4
20260905134353 26 173 0.0 0.0 0.00 0.03 0.00 87 1014.4
20260905133836 25 173 0.0 0.0 0.00 0.03 0.00 87 1014.4
20260905133321 25 174 0.0 0.0 0.00 0.03 0.00 86 1014.3
20260905132828 25 173 0.0 1.6 0.00 0.03 0.00 86 1014.3
20260905132329 25 173 0.0 1.6 0.00 0.03 0.00 86 1014.2
20260905131834 25 173 0.0 0.0 0.00 0.03 0.00 86 1014.2
20260905131318 24 173 0.0 4.8 0.00 0.03 0.00 86 1014.2
20260905130820 24 173 0.0 4.8 0.00 0.03 0.00 86 1014.2
20260905130331 24 174 3.2 4.8 0.00 0.03 0.00 86 1014.2
20260905125818 23 174 3.2 4.8 0.00 0.03 0.00 86 1014.2
20260905125318 23 175 1.6 4.8 0.00 0.03 0.00 86 1014.0
20260905124823 23 175 3.2 6.4 0.00 0.03 0.00 86 1013.9
20260905124349 23 180 3.2 6.4 0.00 0.03 0.00 85 1013.8
20260905123844 23 194 3.2 4.8 0.00 0.03 0.00 85 1013.7
20260905123317 23 197 1.6 3.2 0.00 0.03 0.00 85 1013.7
20260905122831 23 197 1.6 4.8 0.00 0.03 0.00 85 1013.6
20260905122353 23 197 3.2 4.8 0.00 0.03 0.00 85 1013.7
20260905121818 23 197 0.0 0.0 0.00 0.03 0.00 85 1013.5
20260905121350 23 197 0.0 0.0 0.00 0.03 0.00 85 1013.5
20260905120837 23 197 0.0 0.0 0.00 0.03 0.00 85 1013.5
20260905120325 23 197 0.0 0.0 0.00 0.03 0.00 85 1013.4
20260905050822 26 138 3.2 8.0 0.00 0.08 0.00 77 1013.3
20260905050323 26 155 3.2 9.7 0.00 0.08 0.00 77 1013.2
20260905045830 26 166 3.2 8.0 0.00 0.08 0.00 77 1013.3
20260905045336 26 171 3.2 8.0 0.00 0.08 0.08 77 1013.3
20260905044820 26 170 3.2 6.4 0.00 0.08 0.08 77 1013.2
20260905044325 26 190 1.6 8.0 0.00 0.08 0.08 77 1013.2
20260905043838 26 192 3.2 8.0 0.00 0.08 0.08 77 1013.3
20260905043345 26 188 3.2 8.0 0.00 0.08 0.08 76 1013.3
20260905042829 26 184 3.2 11.3 0.00 0.08 0.08 76 1013.3
20260905042333 26 144 4.8 11.3 0.00 0.08 0.08 76 1013.4
20260905041840 26 159 4.8 11.3 0.00 0.08 0.08 76 1013.3
20260905041321 26 146 3.2 11.3 0.00 0.08 0.08 76 1013.3
20260905040833 26 154 4.8 12.9 0.00 0.08 0.08 76 1013.4
20260905040342 26 158 6.4 12.9 0.00 0.08 0.08 76 1013.3
20260905035830 26 151 3.2 8.0 0.00 0.08 0.08 76 1013.3
20260905035338 26 187 3.2 11.3 0.00 0.08 0.08 75 1013.4
20260905034846 26 178 3.2 12.9 0.00 0.08 0.08 75 1013.3
20260905034332 26 148 3.2 14.5 0.00 0.08 0.08 75 1013.3
20260905033857 26 142 6.4 14.5 0.00 0.08 0.08 75 1013.3
20260905033322 26 125 6.4 12.9 0.00 0.08 0.08 75 1013.2
20260905032826 26 128 4.8 12.9 0.00 0.08 0.08 75 1013.3
20260905032359 26 138 4.8 14.5 0.00 0.08 0.08 75 1013.2
20260905031824 26 148 4.8 14.5 0.00 0.08 0.08 74 1013.3
20260905031328 26 150 6.4 14.5 0.00 0.08 0.08 74 1013.2
20260905030833 26 165 6.4 11.3 0.00 0.08 0.08 74 1013.2
20260905030320 26 132 4.8 11.3 0.00 0.08 0.08 74 1013.2
20260905025830 26 121 4.8 11.3 0.00 0.08 0.08 74 1013.3
20260905025335 26 157 4.8 11.3 0.00 0.08 0.08 73 1013.2
20260905024822 26 149 4.8 11.3 0.00 0.08 0.08 73 1013.2
20260905024326 26 132 4.8 11.3 0.00 0.08 0.08 73 1013.2
20260905023826 27 130 4.8 11.3 0.00 0.08 0.08 73 1013.2
20260905023334 27 126 6.4 11.3 0.00 0.08 0.08 73 1013.2
20260905022847 27 130 4.8 11.3 0.00 0.08 0.08 73 1013.1
20260905022350 27 138 4.8 8.0 0.00 0.08 0.08 73 1013.0
20260905021836 27 124 3.2 8.0 0.00 0.08 0.08 73 1013.0
20260905021343 27 119 4.8 8.0 0.00 0.08 0.08 73 1013.0
20260905020856 27 130 4.8 8.0 0.00 0.08 0.08 73 1012.9
20260905020322 27 189 3.2 6.4 0.00 0.08 0.08 73 1012.7
20260905015830 27 176 3.2 8.0 0.00 0.08 0.08 73 1012.7
20260905015332 27 173 3.2 8.0 0.00 0.08 0.08 73 1012.7
20260905014819 28 159 4.8 8.0 0.00 0.08 0.08 73 1012.6
20260905014323 28 164 3.2 8.0 0.00 0.08 0.08 73 1012.6
20260905013825 28 159 4.8 9.7 0.00 0.08 0.08 73 1012.5
20260905013328 28 152 4.8 11.3 0.00 0.08 0.08 73 1012.5
20260905012842 28 134 4.8 11.3 0.00 0.08 0.08 73 1012.5
20260905012344 28 142 6.4 11.3 0.00 0.08 0.08 73 1012.4
20260905011827 28 150 4.8 8.0 0.00 0.08 0.08 73 1012.3
20260905011334 29 144 3.2 12.9 0.00 0.08 0.08 73 1012.2
20260905010836 29 136 4.8 12.9 0.00 0.08 0.08 73 1012.2
20260905010350 30 140 6.4 8.0 0.00 0.08 0.08 73 1012.2
20260905005859 30 131 4.8 8.0 0.00 0.08 0.08 74 1012.1
20260905005321 30 127 3.2 6.4 0.00 0.08 0.08 74 1012.0
20260905004827 30 127 3.2 6.4 0.00 0.08 0.08 74 1011.9
20260905004342 30 140 3.2 4.8 0.00 0.08 0.08 74 1011.9
20260905003819 30 140 3.2 11.3 0.00 0.08 0.08 75 1011.8
20260905003332 30 141 4.8 11.3 0.00 0.08 0.08 75 1011.8
20260905002841 30 130 4.8 11.3 0.00 0.08 0.08 75 1011.8
20260905002326 31 136 4.8 11.3 0.00 0.08 0.08 76 1011.8
20260905001828 31 162 3.2 8.0 0.00 0.08 0.08 76 1011.8
20260905001329 31 163 4.8 12.9 0.00 0.08 0.08 76 1011.9
20260905000836 31 148 4.8 12.9 0.00 0.08 0.08 76 1011.8
20260905000325 31 124 4.8 12.9 0.00 0.08 0.08 77 1011.8
20260904235833 31 139 6.4 16.1 0.00 0.08 0.08 77 1011.8
20260904235336 31 130 8.0 16.1 0.00 0.10 0.08 77 1011.9
20260904234823 31 156 6.4 16.1 0.00 0.10 0.08 78 1011.8
20260904234328 31 128 8.0 14.5 0.00 0.10 0.08 78 1011.8
20260904233836 31 134 6.4 14.5 0.00 0.10 0.08 79 1011.8
20260904233344 31 140 6.4 14.5 0.00 0.10 0.08 79 1011.8
20260904232857 31 138 8.0 14.5 0.00 0.10 0.08 79 1011.8
20260904232321 31 122 8.0 12.9 0.00 0.10 0.08 80 1011.8
20260904231829 32 128 4.8 17.7 0.00 0.10 0.08 80 1011.8
20260904231336 32 101 9.7 17.7 0.00 0.10 0.08 81 1011.8
20260904230825 32 92 8.0 17.7 0.00 0.10 0.08 81 1011.8
20260904230334 32 129 11.3 19.3 0.00 0.10 0.08 81 1011.8
20260904225843 32 121 6.4 12.9 0.00 0.10 0.08 82 1011.8
20260904225324 32 122 6.4 16.1 0.00 0.10 0.08 82 1011.8
20260904224833 32 138 8.0 16.1 0.00 0.10 0.08 82 1011.8